Вернуться в каталог

STARLINK-31536

АктивенСвязьVLEO
NORAD 59192·PAYLOAD·🇺🇸 United States

Запущен Mar 10, 2024 с Cape Canaveral Space Force Station

Loading…

Ближайшие Пролёты (ближайшие 24 часа)

TLE

СвежийSource: CelesTrak SupGP

Эпоха: Sep 14, 2026, 20:59 UTC

1 59192C 24045Q   26257.87479167 -.00045049  00000+0 -16318-2 0  2573
2 59192  42.9991 104.1171 0001227 272.6284 127.8822 15.27598131    13

Отслеживайте STARLINK-31536 в реальном времени с AllMySat

Download on the App Store